User: anonymous   Login
Location: Saddleback Butte
(34.6776°N, 117.8050°W)
Time: 16:18:13
(UTC-07:00)
Language:

Cosmos 1862 Rocket - Orbit

View from above orbital plane
View from above orbital plane
View from above satellite
View from above satellite

Ground track
Ground track

The orbit data is extracted from the following two-line orbital elements,

1 18153U 87055B   15143.83492320  .00000306  00000-0  34563-4 0  9992
2 18153 082.5005 093.5456 0023023 053.9753 306.3591 14.82958090506402
Epoch (UTC): 23 May 2015 20:02:17
Eccentricity: 0.0023023
inclination: 82.5005°
perigee height: 604 km
apogee height: 636 km
right ascension of ascending node: 93.5456°
argument of perigee: 53.9753°
revolutions per day: 14.82958090
mean anomaly at epoch: 306.3591°
orbit number at epoch: 50640

The dashed part of the orbit path shows where the satellite is in the earth's shadow,  

DLR